CW5757 Weather Reports


Display with metric or nautical units.
time (UTC)temp
F
wind
direction
speed
MPH
gust
MPH
rain 1hr
in
rain 24hr
in
rain mn
in
humidity
%
barometer
mb
20260906212041 75 340 0.0 1.0 0.16 0.16 0.16 81 1010.6
20260906211548 75 340 0.0 3.0 0.16 0.17 0.16 79 1010.4
20260906211043 76 340 0.0 4.0 0.16 0.17 0.16 77 1010.0
20260906210550 76 340 0.0 14.0 0.16 0.17 0.16 74 1010.4
20260906210057 78 340 0.0 24.0 0.12 0.14 0.12 70 1010.6
20260906205540 82 340 7.0 24.0 0.05 0.10 0.05 64 1010.1
20260906205030 90 2 0.0 3.0 0.01 0.08 0.01 55 1009.6
20260906204530 94 2 0.0 3.0 0.00 0.07 0.00 47 1009.9
20260906204035 95 2 0.0 0.0 0.00 0.07 0.00 45 1009.5
20260906203542 95 2 0.0 0.0 0.00 0.07 0.00 45 1009.3
20260906203030 95 2 0.0 0.0 0.00 0.07 0.00 45 1009.3
20260906202530 95 2 0.0 0.0 0.00 0.07 0.00 45 1009.4
20260906202031 95 2 0.0 0.0 0.00 0.07 0.00 44 1009.5
20260906201535 95 2 0.0 0.0 0.00 0.07 0.00 45 1009.5
20260906201042 95 2 0.0 0.0 0.00 0.07 0.00 45 1009.5
20260906200530 95 2 0.0 0.0 0.00 0.07 0.00 45 1009.6
20260906200031 95 2 0.0 0.0 0.00 0.07 0.00 44 1009.8
20260906195530 95 2 0.0 0.0 0.00 0.07 0.00 45 1010.0
20260906195030 95 2 0.0 0.0 0.00 0.07 0.00 45 1010.0
20260906194536 95 2 0.0 0.0 0.00 0.07 0.00 43 1010.0
20260906194043 95 2 0.0 2.0 0.00 0.07 0.00 45 1010.1
20260906193536 95 2 0.0 2.0 0.00 0.07 0.00 44 1010.1
20260906193042 95 2 0.0 1.0 0.00 0.07 0.00 47 1010.2
20260906192530 95 2 0.0 0.0 0.00 0.07 0.00 48 1010.2
20260906192030 95 2 0.0 0.0 0.00 0.07 0.00 49 1010.3
20260906191530 95 2 0.0 0.0 0.00 0.07 0.00 50 1010.3
20260906191033 95 2 0.0 0.0 0.00 0.07 0.00 50 1010.4
20260906190540 95 2 0.0 0.0 0.00 0.07 0.00 48 1010.7
20260906190048 95 2 0.0 0.0 0.00 0.07 0.00 47 1010.7
20260906185542 95 2 0.0 0.0 0.00 0.07 0.00 47 1010.9
20260906185030 95 2 0.0 0.0 0.00 0.07 0.00 46 1010.9
20260906184531 95 2 0.0 0.0 0.00 0.07 0.00 48 1011.0
20260906184030 95 2 0.0 0.0 0.00 0.07 0.00 50 1011.1
20260906183530 95 2 0.0 0.0 0.00 0.07 0.00 47 1011.3
20260906183030 96 2 0.0 0.0 0.00 0.07 0.00 50 1011.2
20260906182530 96 2 0.0 0.0 0.00 0.07 0.00 50 1011.2
20260906182030 96 2 0.0 0.0 0.00 0.07 0.00 47 1011.3
20260906181530 97 2 0.0 0.0 0.00 0.07 0.00 46 1011.2
20260906181030 97 2 0.0 0.0 0.00 0.07 0.00 48 1011.3
20260906180530 97 2 0.0 0.0 0.00 0.07 0.00 45 1011.4
20260906180035 97 2 0.0 0.0 0.00 0.07 0.00 46 1011.4
20260906175542 96 2 0.0 0.0 0.00 0.07 0.00 47 1011.4
20260906175030 96 2 0.0 0.0 0.00 0.07 0.00 46 1011.5
20260906174530 96 2 0.0 0.0 0.00 0.07 0.00 48 1011.6
20260906174030 95 2 0.0 0.0 0.00 0.07 0.00 48 1011.7
20260906173530 94 2 0.0 0.0 0.00 0.07 0.00 49 1011.7
20260906173030 95 2 0.0 0.0 0.00 0.07 0.00 48 1011.8
20260906172530 95 2 0.0 0.0 0.00 0.07 0.00 48 1011.7
20260906172030 95 2 0.0 0.0 0.00 0.07 0.00 49 1011.8
20260906171530 95 2 0.0 0.0 0.00 0.07 0.00 50 1011.8
20260906171030 95 2 0.0 0.0 0.00 0.07 0.00 52 1011.9
20260906170530 95 2 0.0 0.0 0.00 0.07 0.00 49 1012.0
20260906170030 95 2 0.0 0.0 0.00 0.07 0.00 53 1012.1
20260906165530 95 2 0.0 0.0 0.00 0.07 0.00 53 1012.1
20260906165030 94 2 0.0 0.0 0.00 0.07 0.00 54 1012.2
20260906164530 94 2 0.0 0.0 0.00 0.07 0.00 55 1012.4
20260906164030 93 2 0.0 0.0 0.00 0.07 0.00 55 1012.4
20260906163537 92 2 0.0 0.0 0.00 0.07 0.00 59 1012.5
20260906163045 92 2 0.0 0.0 0.00 0.07 0.00 60 1012.6
20260906162530 91 2 0.0 0.0 0.00 0.07 0.00 59 1012.7
20260906162033 91 2 0.0 0.0 0.00 0.07 0.00 60 1012.7
20260906161540 90 2 0.0 0.0 0.00 0.07 0.00 64 1012.7
20260906161047 89 2 0.0 0.0 0.00 0.07 0.00 62 1012.7
20260906160542 88 2 0.0 0.0 0.00 0.07 0.00 64 1012.8
20260906160030 88 2 0.0 0.0 0.00 0.07 0.00 68 1012.8
20260906155530 87 2 0.0 0.0 0.00 0.07 0.00 67 1012.8
20260906155030 86 2 0.0 0.0 0.00 0.07 0.00 65 1012.9
20260906154530 86 2 0.0 0.0 0.00 0.07 0.00 68 1012.9
20260906154030 85 2 0.0 0.0 0.00 0.07 0.00 71 1012.9
20260906153530 84 2 0.0 0.0 0.00 0.07 0.00 73 1012.9
20260906153030 84 2 0.0 0.0 0.00 0.07 0.00 74 1013.0
20260906152530 83 2 0.0 0.0 0.00 0.07 0.00 72 1013.0
20260906152030 83 2 0.0 0.0 0.00 0.07 0.00 73 1013.0
20260906151530 83 2 0.0 0.0 0.00 0.07 0.00 75 1013.0
20260906151030 82 2 0.0 0.0 0.00 0.07 0.00 74 1013.1
20260906150530 81 2 0.0 0.0 0.00 0.07 0.00 76 1013.1
20260906150033 81 2 0.0 0.0 0.00 0.07 0.00 77 1013.1
20260906145540 80 2 0.0 0.0 0.00 0.07 0.00 79 1013.1
20260906145047 79 2 0.0 0.0 0.00 0.07 0.00 81 1013.3
20260906144542 78 2 0.0 0.0 0.00 0.07 0.00 81 1013.3
20260906144030 78 2 0.0 0.0 0.00 0.07 0.00 82 1013.3
20260906143535 77 2 0.0 0.0 0.00 0.07 0.00 83 1013.3
20260906143042 77 2 0.0 0.0 0.00 0.07 0.00 84 1013.3
20260906142536 77 2 0.0 0.0 0.00 0.07 0.00 84 1013.2
20260906142042 76 2 0.0 0.0 0.00 0.07 0.00 85 1013.3
20260906141531 76 2 0.0 0.0 0.00 0.07 0.00 85 1013.3
20260906141030 76 2 0.0 0.0 0.00 0.07 0.00 86 1013.4
20260906140530 75 2 0.0 0.0 0.00 0.07 0.00 86 1013.3
20260906140030 75 2 0.0 0.0 0.00 0.07 0.00 86 1013.4
20260906135530 75 2 0.0 0.0 0.00 0.07 0.00 86 1013.3
20260906134539 74 2 0.0 0.0 0.00 0.07 0.00 86 1013.4
20260906133643 74 2 0.0 0.0 0.00 0.07 0.00 86 1013.2
20260906133054 74 2 0.0 0.0 0.00 0.07 0.00 86 1013.2
20260906132542 73 2 0.0 0.0 0.00 0.07 0.00 86 1013.1
20260906131627 73 2 0.0 0.0 0.00 0.07 0.00 86 1012.9
20260906130849 73 2 0.0 0.0 0.00 0.07 0.00 86 1013.0
20260906130348 72 2 0.0 0.0 0.00 0.07 0.00 86 1013.0
20260906125848 72 2 0.0 0.0 0.00 0.07 0.00 86 1013.0
20260906125348 72 2 0.0 0.0 0.00 0.07 0.00 86 1012.9
20260906124848 72 2 0.0 0.0 0.00 0.07 0.00 86 1013.0
20260906124348 72 2 0.0 0.0 0.00 0.07 0.00 86 1012.9
20260906123853 71 2 0.0 0.0 0.00 0.07 0.00 86 1012.9
20260906123400 71 2 0.0 0.0 0.00 0.07 0.00 86 1013.0
20260906122848 71 2 0.0 0.0 0.00 0.07 0.00 86 1013.1
20260906122348 71 2 0.0 0.0 0.00 0.07 0.00 86 1013.0
20260906121848 71 2 0.0 0.0 0.00 0.07 0.00 85 1012.9
20260906121353 71 2 0.0 0.0 0.00 0.07 0.00 85 1012.8
20260906120900 71 2 0.0 0.0 0.00 0.07 0.00 85 1012.8
20260906120348 71 2 0.0 0.0 0.00 0.07 0.00 85 1012.8
20260906115848 71 2 0.0 0.0 0.00 0.07 0.00 85 1012.8
20260906114848 70 2 0.0 0.0 0.00 0.07 0.00 85 1012.8
20260906114348 70 2 0.0 0.0 0.00 0.07 0.00 85 1012.7
20260906113848 70 2 0.0 0.0 0.00 0.07 0.00 85 1012.7
20260906113347 70 2 0.0 0.0 0.00 0.07 0.00 86 1012.6
20260906112848 70 2 0.0 0.0 0.00 0.07 0.00 86 1012.5
20260906111946 70 2 0.0 0.0 0.00 0.07 0.00 86 1012.4
20260906111452 70 2 0.0 0.0 0.00 0.07 0.00 85 1012.3
20260906110959 70 2 0.0 0.0 0.00 0.07 0.00 85 1012.2
20260906110447 70 2 0.0 0.0 0.00 0.07 0.00 85 1012.2
20260906105947 70 2 0.0 0.0 0.00 0.07 0.00 85 1012.1
20260906105447 70 2 0.0 0.0 0.00 0.07 0.00 85 1012.1
20260906104947 70 2 0.0 0.0 0.00 0.07 0.00 85 1012.1
20260906104447 70 2 0.0 0.0 0.00 0.07 0.00 85 1012.1
20260906103947 70 2 0.0 0.0 0.00 0.07 0.00 85 1012.1
20260906103446 70 2 0.0 0.0 0.00 0.07 0.00 85 1012.1
20260906102951 70 2 0.0 0.0 0.00 0.07 0.00 85 1012.2
20260906102459 70 2 0.0 0.0 0.00 0.07 0.00 85 1012.2
20260906101947 70 2 0.0 0.0 0.00 0.07 0.00 85 1012.2
20260906101447 70 2 0.0 0.0 0.00 0.07 0.00 85 1012.2
20260906100947 70 2 0.0 0.0 0.00 0.07 0.00 85 1012.1
20260906100447 71 2 0.0 0.0 0.00 0.07 0.00 85 1012.2
20260906095947 70 2 0.0 0.0 0.00 0.07 0.00 85 1012.2
20260906095446 70 2 0.0 0.0 0.00 0.07 0.00 85 1012.2
20260906094952 70 2 0.0 0.0 0.00 0.07 0.00 85 1012.3
20260906094459 70 2 0.0 0.0 0.00 0.07 0.00 85 1012.2
20260906093947 70 2 0.0 0.0 0.00 0.07 0.00 85 1012.2
20260906093447 70 2 0.0 0.0 0.00 0.07 0.00 85 1012.3
20260906092949 70 2 0.0 0.0 0.00 0.07 0.00 85 1012.2
20260906092456 70 2 0.0 0.0 0.00 0.07 0.00 85 1012.2
20260906092001 70 2 0.0 0.0 0.00 0.07 0.00 85 1012.2
20260906091509 71 2 0.0 0.0 0.00 0.07 0.00 85 1012.2
20260906091015 71 2 0.0 0.0 0.00 0.07 0.00 85 1012.1
20260906090523 71 2 0.0 0.0 0.00 0.07 0.00 85 1012.1
20260906085947 71 2 0.0 0.0 0.00 0.07 0.00 85 1012.2
20260906085446 71 2 0.0 0.0 0.00 0.07 0.00 85 1012.1
20260906084949 71 2 0.0 0.0 0.00 0.07 0.00 85 1012.1
20260906084457 71 2 0.0 0.0 0.00 0.07 0.00 85 1012.1
20260906084004 71 2 0.0 0.0 0.00 0.07 0.00 85 1012.1
20260906083511 71 2 0.0 0.0 0.00 0.07 0.00 85 1012.1
20260906083018 71 2 0.0 0.0 0.00 0.07 0.00 85 1012.0
20260906082526 71 2 0.0 0.0 0.00 0.07 0.00 85 1012.1
20260906082008 71 2 0.0 0.0 0.00 0.07 0.00 85 1012.1
20260906081503 71 2 0.0 0.0 0.00 0.07 0.00 85 1012.1
20260906081010 71 2 0.0 0.0 0.00 0.07 0.00 85 1012.1
20260906080518 71 2 0.0 0.0 0.00 0.07 0.00 85 1012.0
20260906080025 71 2 0.0 0.0 0.00 0.07 0.00 85 1012.0
20260906075508 71 2 0.0 0.0 0.00 0.07 0.00 85 1011.8
20260906075015 71 2 0.0 0.0 0.00 0.07 0.00 85 1011.8
20260906074459 71 2 0.0 0.0 0.00 0.07 0.00 85 1011.8
20260906073947 71 2 0.0 0.0 0.00 0.07 0.00 85 1011.9
20260906073446 71 2 0.0 0.0 0.00 0.07 0.00 85 1011.9
20260906072946 71 2 0.0 0.0 0.00 0.07 0.00 85 1011.9
20260906072447 71 2 0.0 0.0 0.00 0.07 0.00 85 1012.0
20260906071946 71 2 0.0 0.0 0.00 0.07 0.00 85 1012.0
20260906071447 71 2 0.0 0.0 0.00 0.07 0.00 85 1012.1
20260906070946 71 2 0.0 0.0 0.00 0.07 0.00 85 1012.0
20260906070452 71 2 0.0 0.0 0.00 0.07 0.00 85 1012.0
20260906065959 71 2 0.0 0.0 0.00 0.07 0.00 85 1012.1
20260906065507 71 2 0.0 0.0 0.00 0.07 0.00 85 1012.0
20260906065014 71 2 0.0 0.0 0.00 0.07 0.00 85 1012.0
20260906064509 71 2 0.0 0.0 0.00 0.07 0.00 85 1012.1
20260906064016 71 2 0.0 0.0 0.00 0.07 0.00 85 1012.3
20260906063523 71 2 0.0 0.0 0.00 0.07 0.00 85 1012.4
20260906063018 71 2 0.0 0.0 0.00 0.07 0.00 85 1012.5
20260906062525 72 2 0.0 0.0 0.00 0.07 0.00 85 1012.7
20260906062020 72 2 0.0 0.0 0.00 0.07 0.00 85 1012.8
20260906061528 72 2 0.0 0.0 0.00 0.07 0.00 85 1012.8
20260906061035 72 2 0.0 0.0 0.00 0.07 0.00 85 1012.8
20260906060446 72 2 0.0 0.0 0.00 0.07 0.00 85 1012.9
20260906055947 72 2 0.0 0.0 0.00 0.07 0.00 85 1012.9
20260906055446 72 2 0.0 0.0 0.00 0.07 0.00 85 1013.0
20260906054947 72 2 0.0 0.0 0.00 0.07 0.00 85 1013.0
20260906054446 72 2 0.0 0.0 0.00 0.07 0.00 85 1013.0
20260906053947 72 2 0.0 0.0 0.00 0.07 0.00 85 1013.1
20260906053447 72 2 0.0 0.0 0.00 0.07 0.00 85 1013.1
20260906052949 72 2 0.0 0.0 0.00 0.07 0.00 85 1013.0
20260906052446 72 2 0.0 0.0 0.00 0.07 0.00 84 1013.1
20260906051947 72 2 0.0 0.0 0.00 0.07 0.00 84 1013.2
20260906051446 72 2 0.0 0.0 0.00 0.07 0.00 84 1013.2
20260906050946 72 2 0.0 0.0 0.00 0.07 0.00 84 1013.1
20260906050451 72 2 0.0 0.0 0.00 0.07 0.00 84 1013.2
20260906045959 72 2 0.0 0.0 0.00 0.07 0.00 84 1013.2
20260906045446 72 2 0.0 0.0 0.00 0.07 0.00 84 1013.2
20260906044947 72 2 0.0 0.0 0.00 0.07 0.00 84 1013.1
20260906044446 73 2 0.0 0.0 0.00 0.07 0.00 84 1013.1
20260906043946 73 2 0.0 0.0 0.00 0.07 0.00 84 1013.1
20260906043447 73 2 0.0 0.0 0.00 0.07 0.00 84 1013.1
20260906042946 73 2 0.0 0.0 0.00 0.07 0.00 84 1013.1
20260906042446 73 2 0.0 0.0 0.00 0.07 0.00 84 1013.1
20260906041952 73 2 0.0 0.0 0.00 0.07 0.00 84 1013.0
20260906041459 73 2 0.0 0.0 0.00 0.07 0.00 84 1013.1
20260906040946 73 2 0.0 0.0 0.00 0.07 0.00 84 1013.1
20260906040446 73 2 0.0 0.0 0.00 0.07 0.00 84 1013.1
20260906035946 73 2 0.0 0.0 0.00 0.07 0.00 84 1013.0
20260906035446 73 2 0.0 0.0 0.00 0.07 0.00 84 1013.0
20260906034946 73 2 0.0 0.0 0.00 0.07 0.00 84 1013.1
20260906034446 73 2 0.0 0.0 0.00 0.07 0.00 84 1013.1
20260906033947 73 2 0.0 0.0 0.00 0.07 0.00 84 1013.1
20260906033447 73 2 0.0 0.0 0.00 0.07 0.00 84 1013.1
20260906032947 73 2 0.0 0.0 0.00 0.07 0.00 84 1013.1
20260906032446 74 2 0.0 0.0 0.00 0.07 0.00 84 1013.0
20260906031946 74 2 0.0 0.0 0.00 0.07 0.00 84 1013.2
20260906031446 74 2 0.0 0.0 0.00 0.07 0.00 84 1013.2
20260906030951 74 2 0.0 0.0 0.00 0.07 0.00 84 1013.3
20260906030459 74 2 0.0 0.0 0.00 0.07 0.00 84 1013.4
20260906025946 74 2 0.0 0.0 0.00 0.07 0.00 84 1013.3
20260906025446 74 2 0.0 0.0 0.00 0.07 0.00 84 1013.4
20260906024947 74 2 0.0 0.0 0.00 0.07 0.00 84 1013.4
20260906024446 74 2 0.0 0.0 0.00 0.07 0.00 84 1013.6
20260906023946 74 2 0.0 0.0 0.00 0.07 0.00 84 1013.5
20260906023447 74 2 0.0 0.0 0.00 0.07 0.00 84 1013.5
20260906022947 74 2 0.0 0.0 0.00 0.07 0.00 84 1013.5
20260906022446 74 2 0.0 0.0 0.00 0.07 0.00 84 1013.6
20260906021946 74 2 0.0 0.0 0.00 0.07 0.00 84 1013.5
20260906021446 74 2 0.0 0.0 0.00 0.07 0.00 84 1013.4
20260906020946 74 2 0.0 0.0 0.00 0.07 0.00 84 1013.5
20260906020451 74 2 0.0 0.0 0.00 0.07 0.00 84 1013.6
20260906015958 74 2 0.0 0.0 0.00 0.07 0.00 84 1013.4
20260906015446 74 2 0.0 0.0 0.00 0.07 0.00 84 1013.3
20260906014951 75 2 0.0 0.0 0.00 0.07 0.00 84 1013.2
20260906014459 75 2 0.0 0.0 0.00 0.07 0.00 84 1013.0
20260906013946 75 2 0.0 0.0 0.00 0.07 0.00 84 1012.8
20260906013446 75 2 0.0 0.0 0.00 0.07 0.00 84 1012.7
20260906012946 75 2 0.0 0.0 0.00 0.07 0.00 84 1012.8
20260906012446 75 2 0.0 0.0 0.00 0.07 0.00 84 1012.9
20260906011946 75 2 0.0 0.0 0.00 0.07 0.00 83 1013.0
20260906011451 75 2 0.0 0.0 0.00 0.07 0.00 83 1013.1
20260906010958 75 2 0.0 0.0 0.00 0.07 0.00 83 1013.0
20260906010451 75 2 0.0 0.0 0.00 0.07 0.00 83 1012.9
20260906005958 75 2 0.0 0.0 0.00 0.07 0.00 83 1012.9
20260906005447 75 2 0.0 0.0 0.00 0.07 0.00 83 1013.0
20260906004946 75 2 0.0 0.0 0.00 0.07 0.00 83 1012.9
20260906004112 75 2 0.0 0.0 0.00 0.07 0.00 83 1013.1
20260906003611 75 2 0.0 0.0 0.00 0.07 0.00 83 1012.9
20260906003112 75 2 0.0 0.0 0.00 0.07 0.00 83 1012.8
20260906002611 75 2 0.0 0.0 0.00 0.07 0.00 83 1012.7
20260906002112 75 2 0.0 0.0 0.00 0.07 0.07 83 1012.6
20260906001612 76 2 0.0 0.0 0.00 0.07 0.07 83 1012.6
20260906001111 76 2 0.0 1.0 0.00 0.07 0.07 83 1012.6
20260906000612 76 2 0.0 1.0 0.00 0.07 0.07 83 1012.4
20260906000112 76 2 0.0 0.0 0.00 0.07 0.07 83 1012.4
20260905235612 76 2 0.0 0.0 0.00 0.07 0.07 83 1012.3
20260905235112 76 2 0.0 0.0 0.00 0.07 0.07 83 1012.3
20260905234612 76 2 0.0 0.0 0.00 0.07 0.07 83 1012.2
20260905234111 76 2 0.0 0.0 0.00 0.07 0.07 83 1012.2
20260905233611 76 2 0.0 0.0 0.00 0.07 0.07 83 1012.1
20260905233111 76 2 0.0 0.0 0.00 0.07 0.07 83 1012.1
20260905232612 76 2 0.0 0.0 0.00 0.07 0.07 83 1012.0
20260905232117 76 2 0.0 0.0 0.00 0.07 0.07 83 1012.0
20260905231624 76 2 0.0 0.0 0.00 0.07 0.07 83 1012.0
20260905231112 76 2 0.0 0.0 0.00 0.07 0.07 83 1012.0
20260905230612 76 2 0.0 0.0 0.00 0.07 0.07 83 1011.9
20260905230112 76 2 0.0 0.0 0.00 0.07 0.07 82 1012.0
20260905225612 76 2 0.0 0.0 0.00 0.07 0.07 82 1012.0
20260905225112 76 2 0.0 0.0 0.00 0.07 0.07 82 1012.1
20260905224612 76 2 0.0 0.0 0.00 0.07 0.07 82 1012.1
20260905224112 76 2 0.0 0.0 0.00 0.07 0.07 82 1012.1
20260905223612 76 2 0.0 0.0 0.00 0.07 0.07 82 1012.0
20260905223111 76 2 0.0 0.0 0.00 0.07 0.07 82 1011.9
20260905222612 76 2 0.0 0.0 0.00 0.07 0.07 82 1011.8
20260905222112 76 2 0.0 0.0 0.00 0.07 0.07 82 1011.6
20260905221617 77 2 0.0 0.0 0.00 0.07 0.07 81 1011.5
20260905221124 77 2 0.0 0.0 0.00 0.07 0.07 81 1011.5
20260905220612 77 2 0.0 0.0 0.01 0.07 0.07 79 1011.5
20260905220112 77 2 0.0 0.0 0.01 0.07 0.07 78 1011.6
20260905215612 77 2 0.0 0.0 0.02 0.07 0.07 78 1011.9
20260905215113 77 2 0.0 0.0 0.04 0.07 0.07 78 1011.8
20260905214612 78 2 0.0 0.0 0.07 0.07 0.07 78 1011.8
20260905214112 78 2 0.0 0.0 0.07 0.07 0.07 77 1012.3
20260905213317 78 2 0.0 0.0 0.07 0.07 0.07 77 1012.3